Theta_e
312 310 305 304 306 307 308 308 310 310 310 311 311 312 312 311 311 315 317 317 313 312 314 314 317 316 319 317 314 310 311 314 317 315 315 313 314 314 313 313 313 314 313 314 314
311 311 309 307 306 308 309 308 309 311 311 311 311 311 311 311 312 316 318 315 309 313 311 313 313 313 314 314 312 310 310 314 315 311 311 313 314 315 313 313 313 313 313 313 314
311 311 311 309 308 308 308 308 308 310 311 311 311 311 311 311 314 317 314 309 311 311 312 312 314 314 316 314 315 311 312 313 314 312 310 312 314 314 310 313 311 312 312 312 312
307 307 309 310 310 309 307 307 308 308 311 311 311 311 311 315 317 315 311 310 311 311 313 315 311 311 312 314 312 315 313 312 313 315 313 312 313 314 313 312 312 311 311 311 310
300 301 305 308 310 310 309 308 309 309 311 311 311 311 311 311 313 318 310 311 313 314 314 313 310 310 310 309 310 312 312 312 312 311 312 311 313 313 312 312 310 310 311 312 312
299 300 302 306 308 310 309 308 308 309 311 311 311 311 313 312 317 314 311 313 314 314 313 312 312 310 310 311 311 311 313 312 310 310 311 312 312 312 313 311 311 310 310 312 314
299 299 300 302 305 309 309 309 308 309 311 311 311 312 314 309 316 311 311 314 314 314 313 313 312 312 311 311 310 312 313 310 311 310 311 311 313 312 312 310 310 311 310 313 314
298 299 300 301 302 306 309 309 309 310 311 311 311 313 309 312 316 317 314 314 314 314 314 314 313 310 312 311 309 311 308 311 310 309 310 311 309 311 310 311 311 311 313 315 316
298 299 300 301 302 305 312 309 310 312 312 312 312 314 313 315 315 318 314 313 314 314 314 314 313 309 309 308 308 307 308 310 310 310 311 311 310 310 311 309 311 311 314 317 315
299 299 300 301 302 306 314 312 312 312 314 314 315 308 307 313 314 314 315 313 313 312 312 312 308 310 306 307 307 311 311 309 313 314 312 312 311 310 312 311 312 310 314 316 315
299 300 300 301 302 310 313 313 310 310 313 312 314 308 311 315 314 312 313 313 312 310 310 311 310 310 311 309 310 312 312 312 311 312 314 312 310 310 310 311 310 310 314 315 315
299 300 300 302 303 314 311 311 313 313 310 310 311 312 313 315 316 315 313 312 312 311 311 310 310 311 312 312 312 312 311 312 312 312 315 313 313 312 313 313 311 311 312 315 313
300 300 300 303 309 308 312 315 314 314 312 312 311 312 313 313 314 315 312 311 312 312 312 311 313 314 314 314 314 312 311 312 313 314 314 314 313 313 312 311 312 311 312 315 314
300 300 301 305 305 304 313 314 316 313 311 313 317 315 314 314 315 316 314 312 313 312 312 311 311 312 313 313 313 313 312 313 315 314 313 313 313 312 313 313 312 312 310 314 313
300 300 303 306 306 304 310 314 316 314 310 315 316 315 313 314 315 314 313 313 313 313 312 313 312 312 312 313 313 313 313 314 314 312 313 313 313 311 311 313 312 311 310 313 313
300 300 308 309 308 308 312 315 313 314 313 320 314 314 314 313 315 315 315 312 312 313 311 311 310 311 310 313 314 313 313 313 312 310 313 312 312 310 311 315 317 315 313 312 312
299 300 307 306 305 312 314 309 307 314 313 317 315 315 314 314 314 315 315 314 312 313 311 312 312 311 311 313 313 311 310 312 312 317 314 315 313 310 313 318 318 315 313 312 311
299 300 306 302 304 314 313 309 311 311 315 314 314 315 315 314 314 315 316 315 314 311 311 313 314 313 313 312 312 310 310 314 314 321 325 318 321 319 319 316 314 314 313 312 311
299 300 305 302 304 312 309 311 309 314 315 314 314 315 315 314 313 313 314 314 314 310 313 312 313 313 313 313 312 312 312 311 316 318 317 318 316 318 320 317 316 314 314 313 312
299 301 303 303 303 311 311 315 314 314 313 313 314 314 314 314 315 315 314 315 315 313 310 313 314 313 315 314 313 312 313 316 314 322 322 318 318 317 321 320 318 316 315 314 312
299 297 301 302 303 302 310 312 312 309 309 310 311 311 314 308 310 315 316 316 317 318 314 312 312 314 316 314 314 314 315 316 316 315 319 320 319 315 318 318 318 315 314 313 312
296 294 300 302 298 299 302 304 307 308 307 307 307 309 306 305 311 316 317 317 314 318 318 312 312 315 315 315 315 313 313 317 320 319 317 316 320 314 317 316 316 315 314 312 311
294 295 300 302 297 300 303 305 306 306 306 306 304 304 304 304 305 311 315 313 316 317 318 319 315 313 314 314 315 316 313 314 313 312 318 319 319 316 315 317 314 313 313 313 310
295 296 297 296 298 302 301 302 305 303 303 304 303 303 303 303 303 306 306 307 314 314 314 315 319 318 319 315 315 318 318 313 313 313 317 317 317 318 317 316 315 313 313 312 309
294 297 298 298 299 299 299 300 299 300 302 301 302 303 303 302 302 302 304 305 309 310 313 311 315 314 314 315 314 315 318 317 314 315 315 316 315 315 315 316 317 315 312 312 310
296 296 295 296 297 299 299 300 301 300 300 301 302 302 301 301 302 303 305 306 306 308 310 310 311 314 314 317 317 316 318 318 317 316 315 316 316 315 314 316 315 315 313 312 311
297 297 296 297 296 298 298 299 300 300 300 300 299 301 302 302 303 304 304 304 305 307 309 309 310 313 315 316 316 320 317 316 317 314 315 316 316 315 315 314 313 313 313 312 311
Wind_Speed
31 29 23 17 14 15 16 16 13 9 7 6 4 6 11 18 17 7 4 3 2 3 7 8 2 7 1 2 2 3 4 2 5 6 5 1 4 3 3 6 4 2 6 7 16
30 31 28 21 16 16 16 15 14 10 8 6 6 8 12 20 13 7 6 6 4 2 5 7 4 7 2 1 1 4 4 7 3 6 6 2 2 4 5 5 5 5 3 8 19
30 29 29 25 19 17 16 15 14 11 8 7 7 9 13 15 3 5 4 3 3 3 5 6 3 2 1 1 1 3 5 5 4 4 7 7 3 1 11 3 7 10 7 6 11
29 29 28 26 23 18 18 16 13 10 8 7 7 9 12 4 2 2 2 5 2 5 9 4 1 2 2 1 2 2 4 6 6 5 4 7 5 3 4 6 10 11 10 7 9
29 30 28 27 25 22 20 16 12 8 7 6 6 9 4 4 6 3 6 5 3 3 4 2 5 2 2 4 4 3 3 5 4 5 4 7 5 5 5 3 9 8 7 10 10
31 31 30 28 27 26 25 15 11 5 5 5 6 6 2 3 4 4 9 4 4 2 3 3 2 1 2 2 3 3 2 2 5 7 3 6 5 6 4 7 8 8 10 10 15
32 32 32 31 29 27 28 16 9 3 3 4 5 5 2 10 3 5 8 5 4 2 1 2 4 4 0 4 3 2 0 5 3 6 5 5 4 7 6 8 11 10 9 9 10
34 33 33 32 31 30 27 14 8 3 2 2 4 2 5 4 7 12 14 9 6 9 4 2 4 4 1 1 8 4 5 3 4 3 6 10 8 9 8 9 11 9 9 10 8
36 35 35 33 31 31 22 11 6 3 3 4 2 3 8 8 6 15 16 6 4 4 4 3 4 3 6 5 5 7 2 3 8 3 3 5 6 10 4 10 11 9 9 9 8
37 38 37 35 34 27 18 9 4 2 1 0 1 4 5 4 4 9 16 13 2 3 5 5 5 3 4 4 5 4 3 5 5 2 3 4 6 6 2 5 11 8 9 9 10
39 40 39 37 35 17 20 3 6 4 1 6 6 5 3 4 1 4 9 7 3 6 3 3 4 6 8 6 4 2 4 5 4 3 1 5 8 10 8 5 8 8 10 10 11
40 42 43 39 26 6 15 4 7 10 9 12 17 12 21 3 3 3 5 4 4 4 3 5 4 10 5 5 6 6 7 5 5 3 2 5 9 9 8 7 8 10 12 14 7
41 43 46 39 11 8 8 5 22 11 3 7 5 5 6 13 7 9 8 4 4 4 4 5 7 2 4 4 6 6 5 4 6 4 3 4 8 6 6 6 8 8 13 17 18
41 44 48 33 4 17 4 22 25 2 4 6 4 5 5 8 5 15 15 7 1 8 4 5 2 0 3 4 7 7 6 4 5 3 4 2 6 5 5 8 9 10 9 16 12
41 44 41 16 11 6 13 26 15 4 3 2 1 2 2 7 4 1 5 4 8 6 5 8 4 2 1 5 5 8 4 4 3 3 2 3 2 7 4 7 12 11 12 15 15
41 42 27 16 13 14 24 21 2 5 6 6 4 5 3 5 4 3 3 5 3 4 0 8 1 4 7 5 4 6 5 7 5 3 2 7 8 6 5 4 6 3 6 13 14
39 36 19 15 13 19 14 4 5 3 6 3 6 7 4 3 3 4 1 4 7 4 5 2 4 4 5 3 3 6 6 3 4 2 6 2 2 9 7 13 10 7 8 10 10
39 33 8 27 33 14 6 5 3 2 4 5 7 7 0 7 5 8 2 3 2 2 3 4 8 6 4 7 8 7 9 6 6 4 4 3 6 5 4 7 5 10 10 9 9
38 31 4 30 26 11 6 3 5 3 4 8 6 4 3 6 3 5 3 4 5 9 8 5 7 5 4 5 9 5 4 5 6 2 2 4 7 5 1 5 6 9 8 8 9
31 15 4 29 22 4 4 5 3 3 7 4 2 3 2 6 5 9 4 2 6 3 6 6 8 9 5 4 2 7 8 4 2 4 5 5 5 6 6 6 5 6 9 9 6
11 5 7 27 15 5 4 5 3 9 9 5 3 4 3 3 3 4 6 5 8 9 6 3 5 4 4 6 9 2 2 4 5 5 6 2 6 6 9 9 10 9 9 9 7
8 4 15 23 4 1 2 4 7 7 9 4 3 3 1 3 4 4 6 0 13 3 7 5 4 6 10 4 4 6 11 8 5 6 3 3 9 5 8 10 9 10 6 6 8
3 3 9 13 2 4 5 6 3 9 6 6 4 6 3 3 4 6 3 9 7 7 7 7 4 5 8 6 3 5 5 5 5 4 8 6 10 3 4 5 8 8 8 6 6
3 4 4 4 2 4 5 4 5 10 9 3 6 5 5 3 6 6 11 6 6 3 13 2 6 11 11 8 3 5 6 7 7 4 11 11 19 6 8 10 9 8 7 8 8
3 2 2 5 4 5 2 4 12 8 4 6 4 3 5 5 9 9 5 12 6 12 2 4 5 4 15 20 15 16 8 14 10 19 10 23 16 14 10 11 14 7 7 8 8
3 3 4 4 5 4 4 2 9 13 7 6 12 9 10 7 9 18 6 3 6 6 3 2 5 5 17 16 12 18 15 11 18 22 13 17 13 6 12 14 5 9 10 10 7
3 2 1 4 3 4 4 7 8 8 7 7 15 12 12 13 7 11 10 13 15 13 7 7 4 1 9 9 16 14 24 23 16 6 12 12 15 9 8 11 13 10 12 11 8
Wind_Direction
16 15 15 9 1 357 357 357 355 348 340 344 339 342 342 345 339 308 249 226 283 316 331 337 46 11 40 340 153 110 63 177 177 155 163 297 146 174 9 79 67 59 135 148 122
17 18 18 12 8 359 355 356 354 345 335 331 328 338 334 335 328 284 274 278 252 275 346 22 356 356 39 275 348 99 114 217 224 164 150 143 152 129 90 81 63 71 33 126 117
13 13 14 14 6 359 353 349 348 343 330 327 327 336 329 330 331 256 294 231 204 308 330 318 288 159 141 265 194 168 170 197 184 187 142 145 132 168 131 162 186 165 176 172 109
8 7 7 8 8 358 349 342 337 335 326 325 332 338 330 335 186 253 249 166 215 312 325 325 340 104 109 249 323 171 195 176 184 197 126 155 152 131 158 201 184 176 169 130 113
5 2 1 0 359 359 351 343 332 326 326 326 337 343 342 5 253 219 177 187 263 309 337 24 40 63 56 312 326 170 199 165 178 168 176 133 173 193 217 210 147 176 125 134 125
1 359 356 355 353 351 351 343 338 321 324 333 344 349 34 314 290 175 188 235 261 237 69 67 83 311 93 354 62 301 267 111 161 200 205 155 217 144 247 174 165 177 154 154 144
0 357 354 351 348 346 347 339 340 313 318 342 345 8 73 238 279 233 221 235 264 278 61 107 123 72 167 341 332 304 38 350 225 193 209 140 273 222 190 157 174 193 163 155 161
0 357 354 351 348 344 342 333 329 297 270 299 318 1 250 285 275 272 236 252 272 275 254 192 56 105 138 311 8 27 53 17 292 144 244 141 252 259 184 172 203 180 166 166 175
360 357 354 352 348 342 346 329 301 282 285 293 331 82 269 300 258 231 220 230 292 272 286 286 62 75 25 82 14 5 235 251 315 189 156 175 240 249 239 183 200 178 179 173 166
360 357 354 351 348 342 355 343 337 233 182 123 321 22 285 254 216 200 217 232 177 73 14 43 49 55 38 78 211 216 228 263 248 276 118 201 264 284 238 189 201 188 182 184 183
358 356 353 349 347 346 2 3 11 359 24 213 206 231 266 286 196 192 184 142 89 68 152 12 72 227 230 209 183 224 221 231 259 258 182 238 245 259 262 247 256 228 197 195 200
356 354 351 346 345 5 5 76 119 292 294 242 245 232 241 293 340 312 160 135 137 205 111 15 258 246 246 194 221 247 228 246 289 272 166 272 253 244 250 247 211 206 202 199 176
355 352 349 344 352 1 357 15 340 356 270 295 214 223 218 177 215 254 152 164 159 180 182 170 242 30 216 260 230 222 183 203 217 338 332 326 275 230 246 244 252 230 198 197 186
353 352 347 344 8 341 335 337 340 107 38 279 268 276 133 136 219 217 188 154 131 191 209 220 277 249 353 261 185 223 214 183 147 106 236 34 283 258 229 236 239 239 200 195 181
352 352 348 354 321 335 327 334 345 85 339 273 71 129 119 165 173 8 159 77 169 180 123 243 259 182 338 243 178 227 128 147 134 129 99 315 290 266 288 259 255 238 209 194 179
350 352 2 3 350 336 328 329 31 44 252 330 35 351 51 315 346 102 107 54 141 158 252 242 238 199 210 209 138 139 83 47 46 86 315 214 181 282 257 246 311 305 178 161 152
347 350 1 7 334 330 334 17 37 159 327 17 357 336 320 297 209 18 256 174 170 130 243 284 230 245 174 192 71 84 76 329 332 350 230 173 185 242 284 296 272 234 149 132 129
343 343 1 9 0 360 14 50 190 280 295 42 335 306 330 31 338 345 224 246 274 317 119 183 293 186 185 180 185 190 161 166 219 205 255 310 238 254 294 316 329 123 124 123 147
343 343 6 4 360 353 63 66 222 240 356 349 344 348 306 32 354 335 266 232 235 174 196 195 258 274 190 166 142 185 167 191 110 2 51 240 291 308 280 7 74 104 124 155 178
337 327 311 356 353 40 79 223 246 310 345 11 294 279 305 0 4 356 307 323 331 189 201 242 283 212 219 104 62 166 162 77 4 187 238 271 265 234 217 201 194 169 182 197 195
349 4 3 351 341 53 179 222 330 17 25 346 333 279 34 24 286 240 261 357 4 340 330 206 177 271 134 201 166 147 172 68 126 151 187 225 256 214 205 196 197 208 212 209 202
354 345 334 354 30 19 72 356 332 356 24 337 331 33 109 325 266 268 235 205 6 347 336 323 223 217 220 219 241 217 187 156 148 216 232 175 256 227 216 206 191 214 223 229 203
348 272 340 1 38 7 340 346 279 33 360 333 312 24 292 275 300 253 267 359 30 27 19 355 327 336 329 339 311 208 187 151 116 86 198 181 257 259 221 213 221 226 243 219 188
1 339 327 30 40 72 14 301 341 344 315 317 322 305 4 293 260 282 312 317 9 319 310 298 228 217 244 242 186 208 207 183 151 137 237 224 246 209 197 210 237 234 230 192 184
26 320 6 321 349 346 321 253 280 291 246 25 298 356 310 294 308 266 299 313 309 298 117 106 264 260 270 267 245 229 213 215 196 228 202 251 229 226 219 220 229 237 185 181 189
16 8 4 289 283 268 280 238 295 288 286 295 293 328 308 264 246 287 304 311 242 273 166 234 262 334 294 280 267 251 224 204 211 226 234 253 262 185 228 244 197 206 176 187 186
326 267 165 258 291 291 226 265 277 327 287 282 310 299 292 289 271 281 253 257 260 270 232 204 225 270 276 336 325 260 234 232 231 200 196 222 239 189 226 224 226 204 183 179 184